{"data":{"norad_id":68794,"intl_designator":"2026-088C","name":"KAKUSHIN RISING OBJECT C","alt_names":[],"object_type":"PAYLOAD","status":"ACTIVE","operator":null,"country":"JPN","launch_date":"2026-04-23","launch_site_code":"RLLB","launch_vehicle":null,"mission":null,"orbit_class":"UNKNOWN","rcs_meters":null,"size_class":null,"mass_kg":null,"dimensions":null,"purposes":[],"wikipedia_slug":null,"has_3d_model":false,"image_url":null,"decayed_at":null,"tle_current":{"epoch":"2026-09-19T09:18:29.263680Z","epoch_age_seconds":155770,"freshness":"FRESH","line1":"1 68794U 26088C   26262.38783870  .00002081  00000+0  13968-3 0  9990","line2":"2 68794  97.5199  49.4996 0013975 130.1819 230.0635 15.07835133 22486","mean_motion":15.07835133,"eccentricity":0.0013975,"inclination_deg":97.5199,"raan_deg":49.4996,"arg_perigee_deg":130.1819,"mean_anomaly_deg":230.0635,"bstar":0.00013968,"rev_number":2248,"period_min":95.501157154693,"perigee_km":533.14453840887,"apogee_km":552.48860363988,"semimajor_km":6920.9535710244,"source":"CELESTRAK","updated_at":"2026-09-20T09:00:24.462957Z"}}}